Year,Month,Day,Hour,Minute,Value (Times are PST for temperature in C)
2018,08,06,00,00,19.20
2018,08,06,00,01,19.20
2018,08,06,00,02,19.20
2018,08,06,00,03,19.20
2018,08,06,00,04,19.20
2018,08,06,00,05,19.20
2018,08,06,00,06,19.20
2018,08,06,00,07,19.20
2018,08,06,00,08,19.20
2018,08,06,00,09,19.20
2018,08,06,00,10,19.20
2018,08,06,00,11,19.20
2018,08,06,00,12,19.20
2018,08,06,00,13,19.20
2018,08,06,00,14,19.20
2018,08,06,00,15,19.20
2018,08,06,00,16,19.10
2018,08,06,00,17,19.10
2018,08,06,00,18,19.10
2018,08,06,00,19,19.10
2018,08,06,00,20,19.10
2018,08,06,00,21,19.00
2018,08,06,00,22,19.00
2018,08,06,00,23,19.00
2018,08,06,00,24,19.00
2018,08,06,00,25,18.90
2018,08,06,00,26,18.90
2018,08,06,00,27,18.90
2018,08,06,00,28,18.90
2018,08,06,00,29,18.80
2018,08,06,00,30,18.80
2018,08,06,00,31,18.80
2018,08,06,00,32,18.80
2018,08,06,00,33,18.80
2018,08,06,00,34,18.80
2018,08,06,00,35,18.70
2018,08,06,00,36,18.70
2018,08,06,00,37,18.70
2018,08,06,00,38,18.70
2018,08,06,00,39,18.70
2018,08,06,00,40,18.70
2018,08,06,00,41,18.70
2018,08,06,00,42,18.60
2018,08,06,00,43,18.60
2018,08,06,00,44,18.60
2018,08,06,00,45,18.60
2018,08,06,00,46,18.60
2018,08,06,00,47,18.60
2018,08,06,00,48,18.60
2018,08,06,00,49,18.50
2018,08,06,00,50,18.50
2018,08,06,00,51,18.50
2018,08,06,00,52,18.50
2018,08,06,00,53,18.50
2018,08,06,00,54,18.50
2018,08,06,00,55,18.50
2018,08,06,00,56,18.50
2018,08,06,00,57,18.40
2018,08,06,00,58,18.40
2018,08,06,00,59,18.40
2018,08,06,01,00,18.40
2018,08,06,01,01,18.40
2018,08,06,01,02,18.40
2018,08,06,01,03,18.40
2018,08,06,01,04,18.40
2018,08,06,01,05,18.40
2018,08,06,01,06,18.40
2018,08,06,01,07,18.30
2018,08,06,01,08,18.30
2018,08,06,01,09,18.30
2018,08,06,01,10,18.30
2018,08,06,01,11,18.30
2018,08,06,01,12,18.30
2018,08,06,01,13,18.30
2018,08,06,01,14,18.30
2018,08,06,01,15,18.30
2018,08,06,01,16,18.30
2018,08,06,01,17,18.20
2018,08,06,01,18,18.20
2018,08,06,01,19,18.20
2018,08,06,01,20,18.20
2018,08,06,01,21,18.20
2018,08,06,01,22,18.20
2018,08,06,01,23,18.20
2018,08,06,01,24,18.10
2018,08,06,01,25,18.10
2018,08,06,01,26,18.10
2018,08,06,01,27,18.10
2018,08,06,01,28,18.10
2018,08,06,01,29,18.10
2018,08,06,01,30,18.00
2018,08,06,01,31,18.00
2018,08,06,01,32,18.00
2018,08,06,01,33,18.00
2018,08,06,01,34,18.00
2018,08,06,01,35,17.90
2018,08,06,01,36,17.90
2018,08,06,01,37,17.90
2018,08,06,01,38,17.90
2018,08,06,01,39,17.90
2018,08,06,01,40,17.90
2018,08,06,01,41,17.90
2018,08,06,01,42,17.90
2018,08,06,01,43,17.80
2018,08,06,01,44,17.80
2018,08,06,01,45,17.80
2018,08,06,01,46,17.80
2018,08,06,01,47,17.80
2018,08,06,01,48,17.80
2018,08,06,01,49,17.70
2018,08,06,01,50,17.70
2018,08,06,01,51,17.70
2018,08,06,01,52,17.70
2018,08,06,01,53,17.70
2018,08,06,01,54,17.70
2018,08,06,01,55,17.70
2018,08,06,01,56,17.70
2018,08,06,01,57,17.70
2018,08,06,01,58,17.70
2018,08,06,01,59,17.70
2018,08,06,02,00,17.70
2018,08,06,02,01,17.60
2018,08,06,02,02,17.60
2018,08,06,02,03,17.60
2018,08,06,02,04,17.60
2018,08,06,02,05,17.60
2018,08,06,02,06,17.60
2018,08,06,02,07,17.60
2018,08,06,02,08,17.60
2018,08,06,02,09,17.50
2018,08,06,02,10,17.50
2018,08,06,02,11,17.50
2018,08,06,02,12,17.50
2018,08,06,02,13,17.40
2018,08,06,02,14,17.40
2018,08,06,02,15,17.40
2018,08,06,02,16,17.40
2018,08,06,02,17,17.40
2018,08,06,02,18,17.40
2018,08,06,02,19,17.40
2018,08,06,02,20,17.30
2018,08,06,02,21,17.30
2018,08,06,02,22,17.30
2018,08,06,02,23,17.30
2018,08,06,02,24,17.30
2018,08,06,02,25,17.30
2018,08,06,02,26,17.30
2018,08,06,02,27,17.30
2018,08,06,02,28,17.30
2018,08,06,02,29,17.30
2018,08,06,02,30,17.30
2018,08,06,02,31,17.30
2018,08,06,02,32,17.30
2018,08,06,02,33,17.30
2018,08,06,02,34,17.30
2018,08,06,02,35,17.30
2018,08,06,02,36,17.30
2018,08,06,02,37,17.30
2018,08,06,02,38,17.20
2018,08,06,02,39,17.20
2018,08,06,02,40,17.20
2018,08,06,02,41,17.20
2018,08,06,02,42,17.20
2018,08,06,02,43,17.20
2018,08,06,02,44,17.20
2018,08,06,02,45,17.10
2018,08,06,02,46,17.10
2018,08,06,02,47,17.10
2018,08,06,02,48,17.10
2018,08,06,02,49,17.10
2018,08,06,02,50,17.10
2018,08,06,02,51,17.10
2018,08,06,02,52,17.00
2018,08,06,02,53,17.00
2018,08,06,02,54,17.00
2018,08,06,02,55,17.00
2018,08,06,02,56,17.00
2018,08,06,02,57,16.90
2018,08,06,02,58,16.90
2018,08,06,02,59,16.90
2018,08,06,03,00,16.90
2018,08,06,03,01,16.90
2018,08,06,03,02,16.90
2018,08,06,03,03,16.90
2018,08,06,03,04,16.90
2018,08,06,03,05,16.90
2018,08,06,03,06,16.90
2018,08,06,03,07,16.90
2018,08,06,03,08,16.80
2018,08,06,03,09,16.80
2018,08,06,03,10,16.80
2018,08,06,03,11,16.80
2018,08,06,03,12,16.80
2018,08,06,03,13,16.80
2018,08,06,03,14,16.80
2018,08,06,03,15,16.80
2018,08,06,03,16,16.80
2018,08,06,03,17,16.80
2018,08,06,03,18,16.80
2018,08,06,03,19,16.80
2018,08,06,03,20,16.80
2018,08,06,03,21,16.80
2018,08,06,03,22,16.80
2018,08,06,03,23,16.80
2018,08,06,03,24,16.80
2018,08,06,03,25,16.80
2018,08,06,03,26,16.80
2018,08,06,03,27,16.80
2018,08,06,03,28,16.80
2018,08,06,03,29,16.80
2018,08,06,03,30,16.80
2018,08,06,03,31,16.90
2018,08,06,03,32,16.90
2018,08,06,03,33,16.90
2018,08,06,03,34,16.90
2018,08,06,03,35,16.90
2018,08,06,03,36,16.90
2018,08,06,03,37,16.90
2018,08,06,03,38,16.90
2018,08,06,03,39,16.90
2018,08,06,03,40,16.90
2018,08,06,03,41,16.90
2018,08,06,03,42,16.90
2018,08,06,03,43,16.90
2018,08,06,03,44,16.90
2018,08,06,03,45,16.90
2018,08,06,03,46,16.90
2018,08,06,03,47,16.90
2018,08,06,03,48,16.90
2018,08,06,03,49,16.90
2018,08,06,03,50,16.90
2018,08,06,03,51,16.90
2018,08,06,03,52,16.90
2018,08,06,03,53,16.90
2018,08,06,03,54,16.90
2018,08,06,03,55,16.90
2018,08,06,03,56,16.90
2018,08,06,03,57,16.90
2018,08,06,03,58,16.80
2018,08,06,03,59,16.80
2018,08,06,04,00,16.80
2018,08,06,04,01,16.80
2018,08,06,04,02,16.80
2018,08,06,04,03,16.80
2018,08,06,04,04,16.80
2018,08,06,04,05,16.80
2018,08,06,04,06,16.80
2018,08,06,04,07,16.80
2018,08,06,04,08,16.70
2018,08,06,04,09,16.70
2018,08,06,04,10,16.70
2018,08,06,04,11,16.70
2018,08,06,04,12,16.70
2018,08,06,04,13,16.70
2018,08,06,04,14,16.70
2018,08,06,04,15,16.70
2018,08,06,04,16,16.60
2018,08,06,04,17,16.60
2018,08,06,04,18,16.60
2018,08,06,04,19,16.60
2018,08,06,04,20,16.60
2018,08,06,04,21,16.60
2018,08,06,04,22,16.50
2018,08,06,04,23,16.50
2018,08,06,04,24,16.50
2018,08,06,04,25,16.50
2018,08,06,04,26,16.40
2018,08,06,04,27,16.40
2018,08,06,04,28,16.40
2018,08,06,04,29,16.40
2018,08,06,04,30,16.40
2018,08,06,04,31,16.40
2018,08,06,04,32,16.30
2018,08,06,04,33,16.30
2018,08,06,04,34,16.30
2018,08,06,04,35,16.30
2018,08,06,04,36,16.30
2018,08,06,04,37,16.30
2018,08,06,04,38,16.30
2018,08,06,04,39,16.20
2018,08,06,04,40,16.20
2018,08,06,04,41,16.20
2018,08,06,04,42,16.20
2018,08,06,04,43,16.20
2018,08,06,04,44,16.10
2018,08,06,04,45,16.10
2018,08,06,04,46,16.10
2018,08,06,04,47,16.10
2018,08,06,04,48,16.10
2018,08,06,04,49,16.00
2018,08,06,04,50,16.00
2018,08,06,04,51,16.00
2018,08,06,04,52,16.00
2018,08,06,04,53,15.90
2018,08,06,04,54,15.90
2018,08,06,04,55,15.90
2018,08,06,04,56,15.90
2018,08,06,04,57,15.90
2018,08,06,04,58,15.90
2018,08,06,04,59,15.90
2018,08,06,05,00,15.90
2018,08,06,05,01,15.90
2018,08,06,05,02,15.90
2018,08,06,05,03,15.90
2018,08,06,05,04,15.90
2018,08,06,05,05,15.90
2018,08,06,05,06,15.90
2018,08,06,05,07,15.90
2018,08,06,05,08,15.90
2018,08,06,05,09,15.90
2018,08,06,05,10,15.90
2018,08,06,05,11,15.90
2018,08,06,05,12,15.90
2018,08,06,05,13,15.90
2018,08,06,05,14,15.80
2018,08,06,05,15,15.80
2018,08,06,05,16,15.80
2018,08,06,05,17,15.80
2018,08,06,05,18,15.80
2018,08,06,05,19,15.80
2018,08,06,05,20,15.80
2018,08,06,05,21,15.80
2018,08,06,05,22,15.80
2018,08,06,05,23,15.80
2018,08,06,05,24,15.80
2018,08,06,05,25,15.80
2018,08,06,05,26,15.80
2018,08,06,05,27,15.80
2018,08,06,05,28,15.80
2018,08,06,05,29,15.80
2018,08,06,05,30,15.70
2018,08,06,05,31,15.70
2018,08,06,05,32,15.70
2018,08,06,05,33,15.70
2018,08,06,05,34,15.70
2018,08,06,05,35,15.70
2018,08,06,05,36,15.70
2018,08,06,05,37,15.70
2018,08,06,05,38,15.70
2018,08,06,05,39,15.70
2018,08,06,05,40,15.70
2018,08,06,05,41,15.60
2018,08,06,05,42,15.60
2018,08,06,05,43,15.60
2018,08,06,05,44,15.60
2018,08,06,05,45,15.60
2018,08,06,05,46,15.60
2018,08,06,05,47,15.60
2018,08,06,05,48,15.60
2018,08,06,05,49,15.60
2018,08,06,05,50,15.60
2018,08,06,05,51,15.60
2018,08,06,05,52,15.60
2018,08,06,05,53,15.60
2018,08,06,05,54,15.60
2018,08,06,05,55,15.60
2018,08,06,05,56,15.60
2018,08,06,05,57,15.60
2018,08,06,05,58,15.60
2018,08,06,05,59,15.50
2018,08,06,06,00,15.50
2018,08,06,06,01,15.50
2018,08,06,06,02,15.50
2018,08,06,06,03,15.50
2018,08,06,06,04,15.50
2018,08,06,06,05,15.40
2018,08,06,06,06,15.40
2018,08,06,06,07,15.40
2018,08,06,06,08,15.40
2018,08,06,06,09,15.40
2018,08,06,06,10,15.40
2018,08,06,06,11,15.40
2018,08,06,06,12,15.40
2018,08,06,06,13,15.40
2018,08,06,06,14,15.40
2018,08,06,06,15,15.40
2018,08,06,06,16,15.40
2018,08,06,06,17,15.40
2018,08,06,06,18,15.40
2018,08,06,06,19,15.40
2018,08,06,06,20,15.40
2018,08,06,06,21,15.40
2018,08,06,06,22,15.40
2018,08,06,06,23,15.40
2018,08,06,06,24,15.30
2018,08,06,06,25,15.30
2018,08,06,06,26,15.30
2018,08,06,06,27,15.30
2018,08,06,06,28,15.30
2018,08,06,06,29,15.30
2018,08,06,06,30,15.30
2018,08,06,06,31,15.30
2018,08,06,06,32,15.30
2018,08,06,06,33,15.30
2018,08,06,06,34,15.30
2018,08,06,06,35,15.30
2018,08,06,06,36,15.30
2018,08,06,06,37,15.30
2018,08,06,06,38,15.30
2018,08,06,06,39,15.30
2018,08,06,06,40,15.30
2018,08,06,06,41,15.30
2018,08,06,06,42,15.30
2018,08,06,06,43,15.30
2018,08,06,06,44,15.30
2018,08,06,06,45,15.30
2018,08,06,06,46,15.30
2018,08,06,06,47,15.30
2018,08,06,06,48,15.30
2018,08,06,06,49,15.30
2018,08,06,06,50,15.30
2018,08,06,06,51,15.30
2018,08,06,06,52,15.30
2018,08,06,06,53,15.30
2018,08,06,06,54,15.30
2018,08,06,06,55,15.30
2018,08,06,06,56,15.30
2018,08,06,06,57,15.30
2018,08,06,06,58,15.30
2018,08,06,06,59,15.30
2018,08,06,07,00,15.30
2018,08,06,07,01,15.30
2018,08,06,07,02,15.30
2018,08,06,07,03,15.30
2018,08,06,07,04,15.30
2018,08,06,07,05,15.30
2018,08,06,07,06,15.30
2018,08,06,07,07,15.30
2018,08,06,07,08,15.30
2018,08,06,07,09,15.30
2018,08,06,07,10,15.30
2018,08,06,07,11,15.30
2018,08,06,07,12,15.30
2018,08,06,07,13,15.30
2018,08,06,07,14,15.30
2018,08,06,07,15,15.30
2018,08,06,07,16,15.30
2018,08,06,07,17,15.30
2018,08,06,07,18,15.30
2018,08,06,07,19,15.40
2018,08,06,07,20,15.40
2018,08,06,07,21,15.40
2018,08,06,07,22,15.40
2018,08,06,07,23,15.40
2018,08,06,07,24,15.40
2018,08,06,07,25,15.40
2018,08,06,07,26,15.40
2018,08,06,07,27,15.40
2018,08,06,07,28,15.40
2018,08,06,07,29,15.40
2018,08,06,07,30,15.40
2018,08,06,07,31,15.40
2018,08,06,07,32,15.50
2018,08,06,07,33,15.50
2018,08,06,07,34,15.50
2018,08,06,07,35,15.50
2018,08,06,07,36,15.50
2018,08,06,07,37,15.50
2018,08,06,07,38,15.50
2018,08,06,07,39,15.60
2018,08,06,07,40,15.60
2018,08,06,07,41,15.60
2018,08,06,07,42,15.60
2018,08,06,07,43,15.60
2018,08,06,07,44,15.60
2018,08,06,07,45,15.60
2018,08,06,07,46,15.60
2018,08,06,07,47,15.60
2018,08,06,07,48,15.70
2018,08,06,07,49,15.70
2018,08,06,07,50,15.70
2018,08,06,07,51,15.70
2018,08,06,07,52,15.70
2018,08,06,07,53,15.70
2018,08,06,07,54,15.70
2018,08,06,07,55,15.80
2018,08,06,07,56,15.80
2018,08,06,07,57,15.80
2018,08,06,07,58,15.80
2018,08,06,07,59,15.80
2018,08,06,08,00,15.80
2018,08,06,08,01,15.90
2018,08,06,08,02,15.90
2018,08,06,08,03,15.90
2018,08,06,08,04,15.90
2018,08,06,08,05,15.90
2018,08,06,08,06,15.90
2018,08,06,08,07,16.00
2018,08,06,08,08,16.00
2018,08,06,08,09,16.00
2018,08,06,08,10,16.10
2018,08,06,08,11,16.10
2018,08,06,08,12,16.10
2018,08,06,08,13,16.10
2018,08,06,08,14,16.10
2018,08,06,08,15,16.20
2018,08,06,08,16,16.20
2018,08,06,08,17,16.20
2018,08,06,08,18,16.20
2018,08,06,08,19,16.30
2018,08,06,08,20,16.30
2018,08,06,08,21,16.30
2018,08,06,08,22,16.30
2018,08,06,08,23,16.30
2018,08,06,08,24,16.40
2018,08,06,08,25,16.40
2018,08,06,08,26,16.40
2018,08,06,08,27,16.40
2018,08,06,08,28,16.50
2018,08,06,08,29,16.50
2018,08,06,08,30,16.60
2018,08,06,08,31,16.60
2018,08,06,08,32,16.60
2018,08,06,08,33,16.60
2018,08,06,08,34,16.70
2018,08,06,08,35,16.70
2018,08,06,08,36,16.70
2018,08,06,08,37,16.80
2018,08,06,08,38,16.80
2018,08,06,08,39,16.80
2018,08,06,08,40,16.90
2018,08,06,08,41,16.90
2018,08,06,08,42,17.00
2018,08,06,08,43,17.00
2018,08,06,08,44,17.10
2018,08,06,08,45,17.20
2018,08,06,08,46,17.20
2018,08,06,08,47,17.20
2018,08,06,08,48,17.30
2018,08,06,08,49,17.30
2018,08,06,08,50,17.40
2018,08,06,08,51,17.40
2018,08,06,08,52,17.50
2018,08,06,08,53,17.50
2018,08,06,08,54,17.50
2018,08,06,08,55,17.60
2018,08,06,08,56,17.60
2018,08,06,08,57,17.70
2018,08,06,08,58,17.70
2018,08,06,08,59,17.80
2018,08,06,09,00,17.80
2018,08,06,09,01,17.80
2018,08,06,09,02,17.90
2018,08,06,09,03,17.90
2018,08,06,09,04,18.00
2018,08,06,09,05,18.00
2018,08,06,09,06,18.10
2018,08,06,09,07,18.10
2018,08,06,09,08,18.10
2018,08,06,09,09,18.20
2018,08,06,09,10,18.20
2018,08,06,09,11,18.30
2018,08,06,09,12,18.30
2018,08,06,09,13,18.40
2018,08,06,09,14,18.40
2018,08,06,09,15,18.50
2018,08,06,09,16,18.50
2018,08,06,09,17,18.60
2018,08,06,09,18,18.70
2018,08,06,09,19,18.70
2018,08,06,09,20,18.80
2018,08,06,09,21,18.90
2018,08,06,09,22,18.90
2018,08,06,09,23,19.00
2018,08,06,09,24,19.10
2018,08,06,09,25,19.20
2018,08,06,09,26,19.30
2018,08,06,09,27,19.40
2018,08,06,09,28,19.50
2018,08,06,09,29,19.60
2018,08,06,09,30,19.80
2018,08,06,09,31,19.90
2018,08,06,09,32,20.00
2018,08,06,09,33,20.10
2018,08,06,09,34,20.20
2018,08,06,09,35,20.30
2018,08,06,09,36,20.40
2018,08,06,09,37,20.50
2018,08,06,09,38,20.70
2018,08,06,09,39,20.80
2018,08,06,09,40,20.90
2018,08,06,09,41,21.00
2018,08,06,09,42,21.00
2018,08,06,09,43,21.10
2018,08,06,09,44,21.20
2018,08,06,09,45,21.30
2018,08,06,09,46,21.40
2018,08,06,09,47,21.40
2018,08,06,09,48,21.50
2018,08,06,09,49,21.60
2018,08,06,09,50,21.60
2018,08,06,09,51,21.70
2018,08,06,09,52,21.70
2018,08,06,09,53,21.80
2018,08,06,09,54,21.80
2018,08,06,09,55,21.90
2018,08,06,09,56,21.90
2018,08,06,09,57,22.00
2018,08,06,09,58,22.00
2018,08,06,09,59,22.10
2018,08,06,10,00,22.20
2018,08,06,10,01,22.30
2018,08,06,10,02,22.40
2018,08,06,10,03,22.50
2018,08,06,10,04,22.50
2018,08,06,10,05,22.60
2018,08,06,10,06,22.70
2018,08,06,10,07,22.70
2018,08,06,10,08,22.80
2018,08,06,10,09,22.80
2018,08,06,10,10,22.90
2018,08,06,10,11,22.90
2018,08,06,10,12,22.90
2018,08,06,10,13,23.00
2018,08,06,10,14,23.00
2018,08,06,10,15,23.10
2018,08,06,10,16,23.10
2018,08,06,10,17,23.10
2018,08,06,10,18,23.20
2018,08,06,10,19,23.20
2018,08,06,10,20,23.30
2018,08,06,10,21,23.30
2018,08,06,10,22,23.40
2018,08,06,10,23,23.40
2018,08,06,10,24,23.50
2018,08,06,10,25,23.50
2018,08,06,10,26,23.50
2018,08,06,10,27,23.60
2018,08,06,10,28,23.60
2018,08,06,10,29,23.60
2018,08,06,10,30,23.70
2018,08,06,10,31,23.70
2018,08,06,10,32,23.80
2018,08,06,10,33,23.80
2018,08,06,10,34,23.80
2018,08,06,10,35,23.80
2018,08,06,10,36,23.80
2018,08,06,10,37,23.80
2018,08,06,10,38,23.90
2018,08,06,10,39,23.90
2018,08,06,10,40,23.90
2018,08,06,10,41,23.90
2018,08,06,10,42,23.90
2018,08,06,10,43,23.90
2018,08,06,10,44,24.00
2018,08,06,10,45,24.00
2018,08,06,10,46,24.00
2018,08,06,10,47,24.00
2018,08,06,10,48,24.00
2018,08,06,10,49,24.10
2018,08,06,10,50,24.10
2018,08,06,10,51,24.10
2018,08,06,10,52,24.10
2018,08,06,10,53,24.20
2018,08,06,10,54,24.20
2018,08,06,10,55,24.20
2018,08,06,10,56,24.20
2018,08,06,10,57,24.30
2018,08,06,10,58,24.30
2018,08,06,10,59,24.30
2018,08,06,11,00,24.40
2018,08,06,11,01,24.40
2018,08,06,11,02,24.40
2018,08,06,11,03,24.50
2018,08,06,11,04,24.50
2018,08,06,11,05,24.50
2018,08,06,11,06,24.60
2018,08,06,11,07,24.60
2018,08,06,11,08,24.60
2018,08,06,11,09,24.70
2018,08,06,11,10,24.70
2018,08,06,11,11,24.70
2018,08,06,11,12,24.80
2018,08,06,11,13,24.80
2018,08,06,11,14,24.80
2018,08,06,11,15,24.80
2018,08,06,11,16,24.90
2018,08,06,11,17,24.90
2018,08,06,11,18,24.90
2018,08,06,11,19,25.00
2018,08,06,11,20,25.00
2018,08,06,11,21,25.10
2018,08,06,11,22,25.10
2018,08,06,11,23,25.10
2018,08,06,11,24,25.10
2018,08,06,11,25,25.10
2018,08,06,11,26,25.10
2018,08,06,11,27,25.10
2018,08,06,11,28,25.20
2018,08,06,11,29,25.20
2018,08,06,11,30,25.20
2018,08,06,11,31,25.20
2018,08,06,11,32,25.20
2018,08,06,11,33,25.30
2018,08,06,11,34,25.30
2018,08,06,11,35,25.30
2018,08,06,11,36,25.30
2018,08,06,11,37,25.40
2018,08,06,11,38,25.40
2018,08,06,11,39,25.40
2018,08,06,11,40,25.40
2018,08,06,11,41,25.40
2018,08,06,11,42,25.40
2018,08,06,11,43,25.40
2018,08,06,11,44,25.40
2018,08,06,11,45,25.50
2018,08,06,11,46,25.50
2018,08,06,11,47,25.60
2018,08,06,11,48,25.60
2018,08,06,11,49,25.60
2018,08,06,11,50,25.70
2018,08,06,11,51,25.70
2018,08,06,11,52,25.80
2018,08,06,11,53,25.80
2018,08,06,11,54,25.90
2018,08,06,11,55,25.90
2018,08,06,11,56,25.90
2018,08,06,11,57,26.00
2018,08,06,11,58,26.00
2018,08,06,11,59,26.10
2018,08,06,12,00,26.20
2018,08,06,12,01,26.20
2018,08,06,12,02,26.30
2018,08,06,12,03,26.30
2018,08,06,12,04,26.30
2018,08,06,12,05,26.40
2018,08,06,12,06,26.40
2018,08,06,12,07,26.50
2018,08,06,12,08,26.50
2018,08,06,12,09,26.60
2018,08,06,12,10,26.60
2018,08,06,12,11,26.70
2018,08,06,12,12,26.70
2018,08,06,12,13,26.80
2018,08,06,12,14,26.80
2018,08,06,12,15,26.90
2018,08,06,12,16,26.90
2018,08,06,12,17,27.00
2018,08,06,12,18,27.00
2018,08,06,12,19,27.10
2018,08,06,12,20,27.10
2018,08,06,12,21,27.20
2018,08,06,12,22,27.20
2018,08,06,12,23,27.20
2018,08,06,12,24,27.30
2018,08,06,12,25,27.30
2018,08,06,12,26,27.40
2018,08,06,12,27,27.40
2018,08,06,12,28,27.50
2018,08,06,12,29,27.60
2018,08,06,12,30,27.70
2018,08,06,12,31,27.70
2018,08,06,12,32,27.80
2018,08,06,12,33,27.90
2018,08,06,12,34,27.90
2018,08,06,12,35,28.00
2018,08,06,12,36,28.00
2018,08,06,12,37,28.10
2018,08,06,12,38,28.20
2018,08,06,12,39,28.20
2018,08,06,12,40,28.30
2018,08,06,12,41,28.30
2018,08,06,12,42,28.30
2018,08,06,12,43,28.40
2018,08,06,12,44,28.40
2018,08,06,12,45,28.40
2018,08,06,12,46,28.40
2018,08,06,12,47,28.50
2018,08,06,12,48,28.60
2018,08,06,12,49,28.60
2018,08,06,12,50,28.60
2018,08,06,12,51,28.60
2018,08,06,12,52,28.60
2018,08,06,12,53,28.60
2018,08,06,12,54,28.60
2018,08,06,12,55,28.60
2018,08,06,12,56,28.60
2018,08,06,12,57,28.60
2018,08,06,12,58,28.60
2018,08,06,12,59,28.60
2018,08,06,13,00,28.60
2018,08,06,13,01,28.70
2018,08,06,13,02,28.70
2018,08,06,13,03,28.70
2018,08,06,13,04,28.70
2018,08,06,13,05,28.70
2018,08,06,13,06,28.70
2018,08,06,13,07,28.70
2018,08,06,13,08,28.80
2018,08,06,13,09,28.70
2018,08,06,13,10,28.70
2018,08,06,13,11,28.70
2018,08,06,13,12,28.70
2018,08,06,13,13,28.70
2018,08,06,13,14,28.70
2018,08,06,13,15,28.70
2018,08,06,13,16,28.70
2018,08,06,13,17,28.70
2018,08,06,13,18,28.70
2018,08,06,13,19,28.70
2018,08,06,13,20,28.70
2018,08,06,13,21,28.70
2018,08,06,13,22,28.70
2018,08,06,13,23,28.70
2018,08,06,13,24,28.70
2018,08,06,13,25,28.70
2018,08,06,13,26,28.70
2018,08,06,13,27,28.70
2018,08,06,13,28,28.70
2018,08,06,13,29,28.70
2018,08,06,13,30,28.80
2018,08,06,13,31,28.80
2018,08,06,13,32,28.80
2018,08,06,13,33,28.80
2018,08,06,13,34,28.80
2018,08,06,13,35,28.80
2018,08,06,13,36,28.80
2018,08,06,13,37,28.80
2018,08,06,13,38,28.80
2018,08,06,13,39,28.80
2018,08,06,13,40,28.80
2018,08,06,13,41,28.80
2018,08,06,13,42,28.80
2018,08,06,13,43,28.80
2018,08,06,13,44,28.80
2018,08,06,13,45,28.70
2018,08,06,13,46,28.70
2018,08,06,13,47,28.70
2018,08,06,13,48,28.70
2018,08,06,13,49,28.70
2018,08,06,13,50,28.70
2018,08,06,13,51,28.70
2018,08,06,13,52,28.70
2018,08,06,13,53,28.70
2018,08,06,13,54,28.70
2018,08,06,13,55,28.80
2018,08,06,13,56,28.80
2018,08,06,13,57,28.80
2018,08,06,13,58,28.90
2018,08,06,13,59,28.90
2018,08,06,14,00,28.90
2018,08,06,14,01,29.00
2018,08,06,14,02,29.00
2018,08,06,14,03,29.10
2018,08,06,14,04,29.10
2018,08,06,14,05,29.20
2018,08,06,14,06,29.20
2018,08,06,14,07,29.20
2018,08,06,14,08,29.30
2018,08,06,14,09,29.30
2018,08,06,14,10,29.30
2018,08,06,14,11,29.30
2018,08,06,14,12,29.40
2018,08,06,14,13,29.40
2018,08,06,14,14,29.40
2018,08,06,14,15,29.50
2018,08,06,14,16,29.50
2018,08,06,14,17,29.60
2018,08,06,14,18,29.60
2018,08,06,14,19,29.60
2018,08,06,14,20,29.60
2018,08,06,14,21,29.60
2018,08,06,14,22,29.70
2018,08,06,14,23,29.70
2018,08,06,14,24,29.70
2018,08,06,14,25,29.70
2018,08,06,14,26,29.70
2018,08,06,14,27,29.80
2018,08,06,14,28,29.80
2018,08,06,14,29,29.90
2018,08,06,14,30,30.00
2018,08,06,14,31,30.10
2018,08,06,14,32,30.10
2018,08,06,14,33,30.20
2018,08,06,14,34,30.20
2018,08,06,14,35,30.30
2018,08,06,14,36,30.30
2018,08,06,14,37,30.30
2018,08,06,14,38,30.40
2018,08,06,14,39,30.40
2018,08,06,14,40,30.40
2018,08,06,14,41,30.40
2018,08,06,14,42,30.40
2018,08,06,14,43,30.40
2018,08,06,14,44,30.40
2018,08,06,14,45,30.50
2018,08,06,14,46,30.60
2018,08,06,14,47,30.60
2018,08,06,14,48,30.60
2018,08,06,14,49,30.60
2018,08,06,14,50,30.70
2018,08,06,14,51,30.80
2018,08,06,14,52,30.80
2018,08,06,14,53,30.90
2018,08,06,14,54,30.90
2018,08,06,14,55,30.90
2018,08,06,14,56,30.90
2018,08,06,14,57,31.00
2018,08,06,14,58,31.00
2018,08,06,14,59,31.00
2018,08,06,15,00,31.10
2018,08,06,15,01,31.10
2018,08,06,15,02,31.20
2018,08,06,15,03,31.30
2018,08,06,15,04,31.40
2018,08,06,15,05,31.40
2018,08,06,15,06,31.50
2018,08,06,15,07,31.60
2018,08,06,15,08,31.60
2018,08,06,15,09,31.70
2018,08,06,15,10,31.70
2018,08,06,15,11,31.70
2018,08,06,15,12,31.70
2018,08,06,15,13,31.80
2018,08,06,15,14,31.80
2018,08,06,15,15,31.80
2018,08,06,15,16,31.80
2018,08,06,15,17,31.80
2018,08,06,15,18,31.80
2018,08,06,15,19,31.90
2018,08,06,15,20,31.90
2018,08,06,15,21,32.00
2018,08,06,15,22,32.00
2018,08,06,15,23,32.10
2018,08,06,15,24,32.10
2018,08,06,15,25,32.10
2018,08,06,15,26,32.00
2018,08,06,15,27,32.00
2018,08,06,15,28,32.00
2018,08,06,15,29,32.00
2018,08,06,15,30,32.00
2018,08,06,15,31,32.10
2018,08,06,15,32,32.10
2018,08,06,15,33,32.20
2018,08,06,15,34,32.10
2018,08,06,15,35,32.10
2018,08,06,15,36,32.00
2018,08,06,15,37,31.90
2018,08,06,15,38,31.90
2018,08,06,15,39,32.00
2018,08,06,15,40,31.90
2018,08,06,15,41,32.00
2018,08,06,15,42,32.10
2018,08,06,15,43,32.10
2018,08,06,15,44,32.20
2018,08,06,15,45,32.20
2018,08,06,15,46,32.30
2018,08,06,15,47,32.40
2018,08,06,15,48,32.40
2018,08,06,15,49,32.30
2018,08,06,15,50,32.30
2018,08,06,15,51,32.30
2018,08,06,15,52,32.30
2018,08,06,15,53,32.30
2018,08,06,15,54,32.30
2018,08,06,15,55,32.30
2018,08,06,15,56,32.40
2018,08,06,15,57,32.40
2018,08,06,15,58,32.50
2018,08,06,15,59,32.50
2018,08,06,16,00,32.50
2018,08,06,16,01,32.60
2018,08,06,16,02,32.60
2018,08,06,16,03,32.60
2018,08,06,16,04,32.60
2018,08,06,16,05,32.60
2018,08,06,16,06,32.60
2018,08,06,16,07,32.50
2018,08,06,16,08,32.50
2018,08,06,16,09,32.40
2018,08,06,16,10,32.40
2018,08,06,16,11,32.30
2018,08,06,16,12,32.30
2018,08,06,16,13,32.40
2018,08,06,16,14,32.50
2018,08,06,16,15,32.60
2018,08,06,16,16,32.70
2018,08,06,16,17,32.70
2018,08,06,16,18,32.60
2018,08,06,16,19,32.60
2018,08,06,16,20,32.70
2018,08,06,16,21,32.60
2018,08,06,16,22,32.60
2018,08,06,16,23,32.60
2018,08,06,16,24,32.60
2018,08,06,16,25,32.60
2018,08,06,16,26,32.60
2018,08,06,16,27,32.60
2018,08,06,16,28,32.50
2018,08,06,16,29,32.40
2018,08,06,16,30,32.40
2018,08,06,16,31,32.30
2018,08,06,16,32,32.30
2018,08,06,16,33,32.20
2018,08,06,16,34,32.10
2018,08,06,16,35,32.10
2018,08,06,16,36,32.10
2018,08,06,16,37,32.10
2018,08,06,16,38,32.00
2018,08,06,16,39,32.00
2018,08,06,16,40,32.10
2018,08,06,16,41,32.10
2018,08,06,16,42,32.10
2018,08,06,16,43,32.10
2018,08,06,16,44,32.10
2018,08,06,16,45,32.10
2018,08,06,16,46,32.20
2018,08,06,16,47,32.20
2018,08,06,16,48,32.10
2018,08,06,16,49,32.10
2018,08,06,16,50,32.00
2018,08,06,16,51,32.00
2018,08,06,16,52,31.90
2018,08,06,16,53,31.80
2018,08,06,16,54,31.80
2018,08,06,16,55,31.70
2018,08,06,16,56,31.60
2018,08,06,16,57,31.50
2018,08,06,16,58,31.40
2018,08,06,16,59,31.30
2018,08,06,17,00,31.20
2018,08,06,17,01,31.10
2018,08,06,17,02,31.10
2018,08,06,17,03,31.00
2018,08,06,17,04,31.00
2018,08,06,17,05,30.90
2018,08,06,17,06,30.90
2018,08,06,17,07,30.90
2018,08,06,17,08,30.80
2018,08,06,17,09,30.70
2018,08,06,17,10,30.70
2018,08,06,17,11,30.70
2018,08,06,17,12,30.60
2018,08,06,17,13,30.60
2018,08,06,17,14,30.60
2018,08,06,17,15,30.60
2018,08,06,17,16,30.70
2018,08,06,17,17,30.70
2018,08,06,17,18,30.80
2018,08,06,17,19,30.90